sat.trackr.live / text

‹ back to catalog

STARLINK-31967

NORAD 60021 · 2024-111F

PAYLOAD ACTIVE UNKNOWN

§ Identity

Operator
Country
US
Launch date
2024-06-08
Launch site
AFETR
Launch vehicle
Mass (kg)
RCS (m²)

Purposes: comms

External: N2YO · Heavens-Above · Gunter

§ Orbital elements

Epoch: 2026-09-21T15:46:33.823488Z

Period
93.85 min
Inclination
53.1583°
Eccentricity
0.0001400
Mean motion
15.34380065 rev/d
Perigee alt
461.8 km
Apogee alt
463.7 km
Semi-major
6,840.9 km
B*
1.9931e-5
RAAN
240.6480°
Arg perigee
89.7893°
Mean anomaly
270.3270°
Rev number
12,911

§ Raw data

STARLINK-319671 60021U 24111F   26264.65733592  .00000297  00000+0  19931-4 0  99922 60021  53.1583 240.6480 0001400  89.7893 270.3270 15.34380065129119

JSON: /api/v1/satellites/60021 · /tle

For live sub-satellite position, see the globe view (requires WebGL).

§ Visibility from observer

Set your observer location to see the next 7 days of passes ≥ 10°. The values pass through the URL so the page stays shareable.

No JS? Fill the form by hand. The geolocation button needs JavaScript.